World > North America > United States > Nebraska   Omaha, NE Website

Omaha, Nebraska Regional Weather

Lat: 41.26N, Lon: 96.01W
Wx Zone: NEZ052
Warning NWS WEATHER ALERT - (More Info. Click Here) Warning
Feedback

Omaha, NE Regional Weather

Expires:201909182300;;993824
ASUS43 KOAX 182210
RWRNE 

WEATHER ROUNDUP FOR NEBRASKA
NATIONAL WEATHER SERVICE OMAHA NE
500 PM CDT WED SEP 18 2019

NOTES: SATELLITE DATA IS BEING USED TO AUGMENT CLOUD COVER ABOVE
       12000 FEET.
       "FAIR" INDICATES FEW OR NO CLOUDS BELOW 12,000 FEET WITH NO
       SIGNIFICANT WEATHER AND/OR OBSTRUCTIONS TO VISIBILITY.

   

NEZ044-045-051>053-067-182300-
OMAHA AREA
  
CITY           SKY/WX    TMP DP  RH WIND       PRES   REMARKS
OMAHA EPPLEY   PTSUNNY   88  70  55 SE17      29.91F HX  93           
BLAIR          FAIR      87  71  60 SE8G17    29.92S HX  92           
FREMONT        PTSUNNY   85  68  56 N5        29.92S                  
MILLARD        PTSUNNY   91  71  51 SE12      29.91S HX  98           
OFFUTT AFB     MOSUNNY   88  70  55 SE15      29.94F HX  92           
PLATTSMOUTH    FAIR      88  71  57 S10       29.92F HX  93           
WAHOO          MOCLDY    83  69  62 N9        29.91F                  
$$
  

SKY/WX - Weather  TMP - Temperature  DP - Dew Point  RH - Relative Humidity
WIND - Wind Direction/Speed PRES - Barometric Pressure VSB - Visibility
WCI - Wind Chill Index E13G22 Wind - East Wind 13 mph/Gusts of 22 mph